Time,TemperatureF,DewpointF,PressureIn,WindDirection,WindDirectionDegrees,WindSpeedMPH,WindSpeedGustMPH,Humidity,HourlyPrecipIn,Conditions,Clouds,dailyrainin,SoftwareType,DateUTC
2013-11-06 00:13:00,56.0,53.0,29.96,North,0,2.0,23.0,89,0.00,,,0.07,,2013-11-06 06:13:00,
2013-11-06 00:22:00,56.0,52.0,29.96,ESE,122,16.0,28.0,87,0.00,,,0.07,,2013-11-06 06:22:00,
2013-11-06 00:42:00,56.0,52.0,29.95,ESE,115,16.0,30.0,87,0.00,,,0.07,,2013-11-06 06:42:00,
2013-11-06 00:52:00,56.0,52.0,29.95,ESE,104,8.0,31.0,88,0.00,,,0.07,,2013-11-06 06:52:00,
2013-11-06 01:12:00,56.0,54.0,29.94,SE,129,18.0,36.0,92,0.00,,,0.07,,2013-11-06 07:12:00,
2013-11-06 01:22:00,55.0,53.0,29.93,ESE,119,18.0,30.0,94,0.00,,,0.07,,2013-11-06 07:22:00,
2013-11-06 01:42:00,55.0,54.0,29.93,SE,126,18.0,33.0,96,0.01,,,0.08,,2013-11-06 07:42:00,
2013-11-06 01:52:00,55.0,54.0,29.92,SE,128,17.0,31.0,97,0.03,,,0.10,,2013-11-06 07:52:00,
2013-11-06 02:12:00,55.0,54.0,29.91,ENE,62,20.0,36.0,96,0.04,,,0.11,,2013-11-06 08:12:00,
2013-11-06 02:22:00,55.0,54.0,29.92,ESE,123,20.0,37.0,97,0.04,,,0.11,,2013-11-06 08:22:00,
2013-11-06 02:42:00,55.0,54.0,29.90,SE,126,20.0,32.0,98,0.05,,,0.13,,2013-11-06 08:42:00,
2013-11-06 02:52:00,55.0,54.0,29.90,NE,53,7.0,32.0,98,0.04,,,0.14,,2013-11-06 08:52:00,
2013-11-06 03:12:00,55.0,54.0,29.88,SE,127,7.0,36.0,98,0.03,,,0.14,,2013-11-06 09:12:00,
2013-11-06 03:22:00,55.0,54.0,29.88,SE,141,0.0,31.0,98,0.04,,,0.15,,2013-11-06 09:22:00,
2013-11-06 03:43:00,55.0,54.0,29.87,ESE,121,14.0,36.0,98,0.04,,,0.17,,2013-11-06 09:43:00,
2013-11-06 03:53:00,55.0,55.0,29.87,ESE,111,15.0,35.0,99,0.05,,,0.19,,2013-11-06 09:53:00,
2013-11-06 04:12:00,55.0,54.0,29.86,North,0,1.0,32.0,98,0.07,,,0.21,,2013-11-06 10:12:00,
2013-11-06 04:23:00,56.0,55.0,29.87,North,9,10.0,32.0,98,0.08,,,0.23,,2013-11-06 10:23:00,
2013-11-06 04:42:00,56.0,55.0,29.88,SSE,147,2.0,29.0,98,0.10,,,0.27,,2013-11-06 10:42:00,
2013-11-06 04:52:00,56.0,55.0,29.89,North,0,1.0,30.0,98,0.15,,,0.34,,2013-11-06 10:52:00,
2013-11-06 05:12:00,55.0,55.0,29.88,North,0,0.0,0.0,99,0.27,,,0.48,,2013-11-06 11:12:00,
2013-11-06 05:22:00,55.0,55.0,29.88,North,0,0.0,0.0,99,0.28,,,0.51,,2013-11-06 11:22:00,
2013-11-06 05:42:00,55.0,54.0,29.87,North,0,0.0,21.0,98,0.26,,,0.53,,2013-11-06 11:42:00,
2013-11-06 05:52:00,55.0,54.0,29.87,North,0,0.0,0.0,98,0.21,,,0.55,,2013-11-06 11:52:00,
2013-11-06 06:12:00,55.0,54.0,29.85,SSE,164,9.0,31.0,98,0.09,,,0.57,,2013-11-06 12:12:00,
2013-11-06 06:22:00,55.0,54.0,29.86,North,0,1.0,31.0,98,0.06,,,0.57,,2013-11-06 12:22:00,
2013-11-06 06:42:00,55.0,55.0,29.86,East,86,5.0,32.0,99,0.08,,,0.61,,2013-11-06 12:42:00,
2013-11-06 06:52:00,55.0,55.0,29.85,SE,125,4.0,26.0,99,0.09,,,0.64,,2013-11-06 12:52:00,
2013-11-06 07:12:00,55.0,55.0,29.86,North,0,0.0,0.0,99,0.09,,,0.66,,2013-11-06 13:12:00,
2013-11-06 07:22:00,55.0,55.0,29.85,North,0,0.0,0.0,99,0.10,,,0.67,,2013-11-06 13:22:00,
2013-11-06 07:42:00,55.0,55.0,29.86,North,0,3.0,23.0,99,0.07,,,0.68,,2013-11-06 13:42:00,
2013-11-06 07:52:00,56.0,56.0,29.86,South,188,0.0,30.0,99,0.05,,,0.69,,2013-11-06 13:52:00,
2013-11-06 08:11:00,56.0,56.0,29.86,North,0,1.0,26.0,99,0.03,,,0.69,,2013-11-06 14:11:00,
2013-11-06 08:22:00,56.0,56.0,29.86,SE,140,0.0,29.0,99,0.02,,,0.69,,2013-11-06 14:22:00,
2013-11-06 08:42:00,56.0,56.0,29.86,North,0,0.0,0.0,99,0.01,,,0.69,,2013-11-06 14:42:00,
2013-11-06 08:52:00,56.0,56.0,29.86,North,0,0.0,0.0,99,0.00,,,0.69,,2013-11-06 14:52:00,
2013-11-06 09:11:00,57.0,57.0,29.87,North,0,0.0,0.0,99,0.00,,,0.69,,2013-11-06 15:11:00,
2013-11-06 09:22:00,57.0,56.0,29.86,NE,47,12.0,22.0,98,0.00,,,0.69,,2013-11-06 15:22:00,
2013-11-06 09:43:00,57.0,56.0,29.85,SE,129,7.0,26.0,98,0.00,,,0.69,,2013-11-06 15:43:00,
2013-11-06 09:53:00,57.0,56.0,29.85,SE,142,15.0,24.0,98,0.00,,,0.69,,2013-11-06 15:53:00,
2013-11-06 10:12:00,57.0,56.0,29.85,SSE,152,13.0,26.0,98,0.00,,,0.69,,2013-11-06 16:12:00,
2013-11-06 10:23:00,57.0,56.0,29.85,South,169,12.0,26.0,98,0.00,,,0.69,,2013-11-06 16:23:00,
2013-11-06 10:42:00,50.0,49.0,29.89,SW,214,20.0,35.0,98,0.01,,,0.70,,2013-11-06 16:42:00,
2013-11-06 11:23:00,46.0,46.0,29.92,SW,224,21.0,33.0,99,0.03,,,0.72,,2013-11-06 17:23:00,
2013-11-06 11:43:00,45.0,44.0,29.93,SW,219,24.0,36.0,98,0.02,,,0.72,,2013-11-06 17:43:00,
2013-11-06 11:52:00,45.0,44.0,29.93,SW,216,18.0,33.0,98,0.01,,,0.72,,2013-11-06 17:52:00,
2013-11-06 12:12:00,43.0,42.0,29.94,SW,220,19.0,36.0,98,0.01,,,0.72,,2013-11-06 18:12:00,
2013-11-06 12:22:00,43.0,42.0,29.94,SW,219,19.0,35.0,98,0.00,,,0.72,,2013-11-06 18:22:00,
2013-11-06 12:42:00,43.0,42.0,29.96,SW,219,22.0,37.0,98,0.01,,,0.73,,2013-11-06 18:42:00,
2013-11-06 12:52:00,43.0,42.0,29.96,SW,215,16.0,28.0,98,0.01,,,0.73,,2013-11-06 18:52:00,
2013-11-06 13:22:00,42.0,41.0,29.98,SW,226,17.0,37.0,97,0.01,,,0.72,,2013-11-06 19:22:00,
2013-11-06 13:42:00,42.0,41.0,29.98,SW,219,17.0,29.0,97,0.00,,,0.72,,2013-11-06 19:42:00,
2013-11-06 13:52:00,42.0,41.0,29.98,SW,228,18.0,32.0,97,0.00,,,0.71,,2013-11-06 19:52:00,
2013-11-06 14:22:00,42.0,41.0,30.01,SW,222,16.0,31.0,96,0.00,,,0.70,,2013-11-06 20:22:00,
2013-11-06 14:42:00,42.0,41.0,30.01,SW,232,17.0,28.0,96,0.00,,,0.69,,2013-11-06 20:42:00,
2013-11-06 14:52:00,42.0,41.0,30.02,SW,221,20.0,32.0,96,0.00,,,0.69,,2013-11-06 20:52:00,
2013-11-06 15:12:00,42.0,40.0,30.03,SW,234,15.0,32.0,94,0.00,,,0.69,,2013-11-06 21:12:00,
2013-11-06 15:22:00,42.0,40.0,30.03,SW,233,12.0,23.0,94,0.00,,,0.69,,2013-11-06 21:22:00,
2013-11-06 15:43:00,42.0,40.0,30.04,WSW,238,13.0,29.0,93,0.00,,,0.69,,2013-11-06 21:43:00,
2013-11-06 15:54:00,43.0,41.0,30.05,WSW,237,16.0,23.0,92,0.00,,,0.69,,2013-11-06 21:54:00,
2013-11-06 16:14:00,43.0,40.0,30.06,WSW,248,16.0,26.0,89,0.00,,,0.69,,2013-11-06 22:14:00,
2013-11-06 16:23:00,43.0,40.0,30.06,WSW,242,13.0,25.0,89,0.00,,,0.69,,2013-11-06 22:23:00,
2013-11-06 16:43:00,43.0,40.0,30.06,SW,231,17.0,26.0,89,0.00,,,0.69,,2013-11-06 22:43:00,
2013-11-06 16:53:00,43.0,40.0,30.07,SW,234,14.0,22.0,89,0.00,,,0.69,,2013-11-06 22:53:00,
2013-11-06 17:22:00,43.0,40.0,30.09,WSW,242,13.0,20.0,90,0.00,,,0.69,,2013-11-06 23:22:00,
2013-11-06 17:42:00,42.0,40.0,30.09,WSW,245,6.0,10.0,92,0.00,,,0.69,,2013-11-06 23:42:00,
2013-11-06 17:53:00,42.0,40.0,30.10,SW,234,6.0,10.0,93,0.00,,,0.69,,2013-11-06 23:53:00,
2013-11-06 18:12:00,41.0,40.0,30.12,SSW,210,5.0,10.0,95,0.00,,,0.69,,2013-11-07 00:12:00,
2013-11-06 18:22:00,41.0,40.0,30.12,SSW,209,6.0,8.0,95,0.00,,,0.69,,2013-11-07 00:22:00,
2013-11-06 18:42:00,41.0,40.0,30.14,SSE,166,5.0,7.0,95,0.00,,,0.69,,2013-11-07 00:42:00,
2013-11-06 18:52:00,41.0,40.0,30.14,South,189,3.0,7.0,96,0.00,,,0.69,,2013-11-07 00:52:00,
2013-11-06 19:22:00,41.0,39.0,30.14,SW,214,12.0,16.0,94,0.00,,,0.69,,2013-11-07 01:22:00,
2013-11-06 19:42:00,41.0,39.0,30.14,SW,218,9.0,17.0,94,0.00,,,0.69,,2013-11-07 01:42:00,
2013-11-06 19:52:00,41.0,39.0,30.14,SW,225,9.0,15.0,93,0.00,,,0.69,,2013-11-07 01:52:00,
2013-11-06 20:12:00,40.0,37.0,30.15,SW,225,8.0,15.0,90,0.00,,,0.69,,2013-11-07 02:12:00,
2013-11-06 20:22:00,40.0,37.0,30.15,SW,224,9.0,14.0,89,0.00,,,0.69,,2013-11-07 02:22:00,
2013-11-06 21:22:00,38.0,35.0,30.16,SW,234,10.0,17.0,88,0.00,,,0.69,,2013-11-07 03:22:00,
2013-11-06 21:44:00,38.0,34.0,30.16,WSW,246,9.0,15.0,87,0.00,,,0.69,,2013-11-07 03:44:00,
2013-11-06 21:55:00,38.0,34.0,30.17,SW,227,9.0,14.0,87,0.00,,,0.69,,2013-11-07 03:55:00,
2013-11-06 22:13:00,37.0,34.0,30.18,SW,226,9.0,13.0,88,0.00,,,0.69,,2013-11-07 04:13:00,
2013-11-06 22:24:00,37.0,34.0,30.18,SW,235,9.0,15.0,87,0.00,,,0.69,,2013-11-07 04:24:00,
2013-11-06 22:43:00,37.0,34.0,30.19,SW,236,9.0,14.0,88,0.00,,,0.69,,2013-11-07 04:43:00,
2013-11-06 22:53:00,36.0,33.0,30.19,WSW,237,7.0,14.0,88,0.00,,,0.69,,2013-11-07 04:53:00,
2013-11-06 23:13:00,36.0,33.0,30.19,SW,227,9.0,16.0,87,0.00,,,0.66,,2013-11-07 05:13:00,
2013-11-06 23:23:00,36.0,33.0,30.19,SW,234,9.0,18.0,87,0.00,,,0.66,,2013-11-07 05:23:00,
2013-11-06 23:44:00,35.0,32.0,30.19,WSW,242,9.0,14.0,87,0.00,,,0.66,,2013-11-07 05:44:00,
2013-11-06 23:54:00,35.0,32.0,30.20,WSW,237,7.0,13.0,88,0.00,,,0.66,,2013-11-07 05:54:00,